Location: Unter dem Birg
(46.4599°N, 7.5664°E)
Time: 18:27:34
(UTC+00:00)

Daily predictions for brighter satellites

Satellite Brightness Start Highest point End
(mag) Time Altitude Azimuth Time Altitude Azimuth Time Altitude Azimuth
BREEZE-M R/B 3.3 16:43:40 10° W 16:46:50 56° N 16:52:47 10° E
COSMO-SKYMED 1 3.7 16:46:25 10° NE 16:49:54 23° E 16:53:22 10° SSE
H-2A R/B 2.2 16:45:58 10° N 16:50:09 74° WNW 16:54:13 10° SSW
Cosmos 44 3.2 16:45:57 10° SSW 16:50:22 62° ESE 16:55:06 10° NE
Cosmos 1328 4.3 16:50:30 10° NNW 16:54:26 66° W 16:58:20 10° S
H-2A R/B 3.6 16:52:29 10° E 16:55:53 17° ENE 16:59:18 10° NNE
Cosmos 1825 Rocket 3.6 16:53:22 10° N 16:57:51 84° E 17:02:15 10° S
GENESIS II 4.5 16:54:44 10° SW 16:58:46 75° NW 17:02:49 10° NE
Cosmos 1656 4.3 16:55:49 10° S 17:00:48 35° ESE 17:05:53 10° NE
CZ-4B R/B 3.6 16:56:57 10° S 17:02:33 73° WSW 17:08:05 10° NNW
Cosmos 1939 Rocket 3.4 16:59:31 10° SE 17:03:08 35° ENE 17:06:43 10° N
USA 307 3.6 16:59:31 10° NW 17:03:35 39° NNE 17:07:24 11° E
Meteor 2-21 Rocket 4.4 16:57:56 10° N 17:04:08 77° E 17:10:15 10° SSE
YAOGAN 1 3.8 17:00:58 10° ESE 17:04:10 21° ENE 17:07:23 10° NNE
Okean O Rocket 2.0 17:02:08 10° S 17:06:28 69° WSW 17:10:50 10° NNW
SeaSat 1 4.2 17:03:44 10° ENE 17:06:29 15° NE 17:09:14 10° N
Cosmos 1331 Rocket 4.1 17:02:59 10° SSW 17:08:09 83° WNW 17:13:20 10° NNE
USA 308 3.6 17:04:27 10° NW 17:08:32 40° NNE 17:12:08 13° E
Cosmos 1408 4.0 17:07:02 10° NNE 17:09:38 18° ENE 17:12:14 10° ESE
Timation 2 Rocket 4.2 17:03:33 10° NNW 17:10:12 89° ENE 17:17:02 10° SSE
Cosmos 1726 Rocket 3.5 17:08:46 10° S 17:13:05 77° E 17:17:30 10° NNE
USA 215 4.2 17:07:26 10° ENE 17:13:14 35° N 17:19:03 10° WNW
Cosmos 2227 Rocket 2.3 17:08:36 10° NNW 17:14:10 53° ENE 17:19:41 10° SE
Helios 1A Rocket 3.5 17:11:40 10° SE 17:15:24 34° ENE 17:19:08 10° N
Cosmos 1892 3.4 17:12:08 10° N 17:15:40 32° ENE 17:19:10 10° SE
Cosmos 2228 3.2 17:11:59 10° SSW 17:16:13 74° W 17:20:31 10° N
ATLAS 2AS CENTAUR R/B 4.0 17:10:32 10° NW 17:16:56 27° NNE 17:22:02 13° ENE
Cosmos 2263 Rocket 3.9 17:14:14 10° N 17:17:15 14° NE 17:19:27 12° ENE
Aureole 3 Rocket 3.4 17:13:47 10° SSE 17:17:41 52° E 17:23:06 10° NNE
Cosmos 1400 Rocket 3.0 17:14:01 10° S 17:18:02 53° E 17:22:01 10° NNE
Cosmos 292 Rocket 3.9 17:15:42 10° SSW 17:20:30 81° WNW 17:25:23 10° NNE
IRS-1C Rocket 4.1 17:16:42 10° SSE 17:21:53 63° ENE 17:27:06 10° N
Cosmos 968 Rocket 3.6 17:18:40 10° NNW 17:23:46 51° ENE 17:28:47 10° SE
Cosmos 1553 Rocket 4.2 17:18:36 10° SSE 17:24:42 51° E 17:30:44 10° NNE
Cosmos 1300 3.0 17:22:35 10° SSW 17:26:23 71° W 17:30:13 10° N
FALCON 9 DEB 3.2 17:24:10 10° WSW 17:27:23 66° NNW 17:29:34 19° NE
Lacrosse 5 3.4 17:24:34 10° NW 17:28:43 25° N 17:32:14 13° NE
Cosmos 1606 Rocket 4.2 17:24:53 10° SSW 17:29:11 58° WNW 17:33:33 10° N
CZ-4 R/B 1.8 17:25:37 10° SE 17:29:12 36° ENE 17:32:45 10° N
Cosmos 1697 Rocket 3.3 17:24:45 10° SSE 17:29:40 32° ESE 17:34:38 10° NE
FALCON 9 DEB 3.3 17:27:19 10° WSW 17:30:30 60° NNW 17:32:31 20° NE
Cosmos 2058 3.4 17:28:55 10° N 17:32:44 36° ENE 17:36:32 10° SE
Cosmos 1825 3.3 17:31:00 10° NNE 17:34:03 23° ENE 17:34:21 22° E
PSLV R/B 4.1 17:30:14 10° NNE 17:34:19 51° E 17:38:21 10° S
SAR-Lupe-4 3.5 17:31:01 10° NNE 17:34:38 86° ESE 17:38:12 10° SSW
CZ-2D R/B 3.2 17:33:28 10° SSE 17:37:13 60° ENE 17:40:59 10° N
Cosmos 44 Rocket 4.5 17:34:03 10° SSE 17:37:38 22° ESE 17:38:24 21° E
SKYMED 2 3.5 17:33:52 10° NNE 17:38:13 71° ESE 17:42:32 10° S
ERS-2 3.3 17:35:01 10° N 17:38:31 45° WNW 17:42:00 10° SW
FALCON 9 DEB 4.2 17:36:36 10° NW 17:39:42 31° NNE 17:40:54 24° NE
Cosmos 1302 Rocket 4.1 17:34:40 10° SSW 17:39:56 85° WNW 17:45:17 10° NNE
SL-4 R/B 2.5 17:37:51 10° WNW 17:41:14 39° N 17:42:47 26° ENE
Cosmos 220 Rocket 4.4 17:37:32 10° S 17:41:38 42° ESE 17:45:06 14° NE
Okean-O 2.6 17:37:27 10° SSE 17:41:47 58° ENE 17:46:10 10° N
Cosmos 1346 Rocket 2.9 17:38:37 10° N 17:42:30 48° ENE 17:46:22 10° SSE
USA 281 4.4 17:36:44 10° S 17:42:58 46° WSW 17:49:16 10° NW
FALCON 9 DEB 3.5 17:40:42 10° WSW 17:43:53 52° NNW 17:45:25 26° NE
SL-08 R/B 4.4 17:39:36 10° N 17:45:48 79° E 17:51:55 10° SSE
Cosmos 1340 2.9 17:42:16 10° NNW 17:46:02 72° W 17:49:47 10° S
Cosmos 1486 Rocket 4.0 17:43:31 10° NNW 17:48:54 84° ENE 17:54:12 10° SSE
Cosmos 1315 Rocket 3.1 17:46:47 10° SSE 17:50:31 41° E 17:54:01 12° NNE
Cosmos 1745 Rocket 4.0 17:44:23 10° N 17:50:39 64° ENE 17:56:56 10° SSE
Cosmos 1980 Rocket 3.0 17:48:16 10° SSE 17:52:53 27° ESE 17:53:25 26° E
Cosmos 1689 Rocket 2.2 17:50:19 10° N 17:53:13 71° WNW 17:56:04 10° SSW
Cosmos 2297 Rocket 2.6 17:48:15 10° NNW 17:53:53 67° WSW 17:59:28 10° SSE
USA 305 2.9 17:49:45 10° NW 17:54:03 65° NNE 17:55:45 34° E
FALCON 9 DEB 3.8 17:51:25 10° W 17:54:31 43° NNW 17:55:34 31° NNE
In-Cosmos 22 Rocket 4.3 17:50:27 10° NNW 17:55:49 75° W 18:01:17 10° S
CZ-4B R/B 3.5 17:53:08 10° N 17:55:53 26° WNW 17:58:33 10° SW
Cosmos 1503 Rocket 4.0 17:53:43 10° NNW 17:58:54 60° ENE 18:03:10 15° SE
CSL-04 Debris 4.3 17:54:09 10° SE 17:59:25 54° ENE 18:04:45 10° N
Aureole 3 4.0 17:57:15 10° SSW 18:00:12 40° WNW 18:03:02 10° N
USA 306 2.8 17:56:13 10° NW 18:00:31 70° NNE 18:01:57 40° ESE
Cosmos 1386 Rocket 4.4 17:55:21 10° N 18:01:47 73° E 18:08:06 10° SSE
Cosmos 2058 Rocket 4.0 18:00:32 10° SSW 18:04:54 50° WNW 18:09:19 10° N
CZ-2C R/B 3.2 18:02:14 10° SSE 18:08:02 81° ENE 18:13:40 10° NNW
Cosmos 1354 Rocket 3.9 18:05:51 10° NNW 18:11:06 67° ENE 18:14:14 24° SE
Cosmos 2360 4.3 18:06:52 10° S 18:12:25 55° ESE 18:15:32 26° NE
Cosmos 1455 2.0 18:10:29 10° S 18:14:15 82° E 18:17:17 16° NNE
CZ-4C R/B 3.8 18:09:08 10° NNW 18:14:54 29° NNE 18:17:00 25° NE
Cosmos 1992 Rocket 3.9 18:12:30 10° SSW 18:17:42 85° ESE 18:22:43 11° NNE
Meteor 2-10 Rocket 3.5 18:14:39 10° SSW 18:19:58 81° W 18:25:07 10° N
Cosmos 1709 Rocket 4.0 18:13:58 10° N 18:20:19 62° ENE 18:26:37 10° SSE
Cosmos 1076 Rocket 3.3 18:17:39 10° N 18:21:55 90° SSE 18:25:01 18° S
Cosmos 2278 3.8 18:18:44 10° S 18:24:11 49° ESE 18:24:51 47° E
COSMO-SKYMED 1 4.0 18:22:09 10° N 18:26:11 38° WNW 18:30:11 10° SW
Meteor 2-3 Rocket 4.4 18:22:48 10° N 18:27:08 35° NE 18:27:08 35° NE
Ariane Rocket 4.2 18:30:46 28° NNE 18:30:46 28° NNE 18:33:40 10° N
Geosat 3.8 18:29:49 43° NE 18:31:29 74° ESE 18:36:29 10° SSW
Cosmos 2082 3.9 18:28:09 10° NNW 18:33:52 71° WSW 18:38:04 19° SSE
H-2A R/B 2.1 18:29:10 10° SSE 18:34:35 85° WSW 18:40:05 10° NNW
ATLAS 5 CENTAUR R/B 4.3 18:33:15 10° NNW 18:35:01 12° N 18:36:16 11° NNE
Cosmos 883 Rocket 4.3 18:29:00 10° S 18:35:08 77° E 18:41:16 10° N
SJ-11-01 4.3 18:34:07 21° S 18:37:11 76° WSW 18:41:54 10° NNW
ARGOS 3.0 18:36:01 39° SSE 18:38:08 79° ENE 18:43:35 10° NNW
YAOGAN 1 3.6 18:35:50 10° S 18:39:58 45° W 18:44:09 10° NNW
S3M 4.4 18:34:55 10° SSW 18:40:58 63° WNW 18:47:06 10° N
Cosmos 2315 Rocket 3.8 18:36:24 10° S 18:42:33 72° E 18:48:44 10° NNE
GEOS 3 Rocket 3.6 18:41:31 58° SE 18:42:37 89° NE 18:48:03 10° NW
SeaSat 1 2.4 18:43:27 68° NE 18:43:27 68° NE 18:48:09 10° NNW
USA 307 3.2 18:39:36 10° WNW 18:43:36 63° WSW 18:43:36 63° WSW
Cosmos 1408 4.3 18:41:26 10° NNW 18:44:44 32° W 18:48:02 10° SSW
NOSS 3-4 (A) 3.8 18:40:16 10° NW 18:47:10 65° NE 18:48:36 54° E
NOSS 3-4 (C) 3.8 18:40:23 10° NW 18:47:16 64° NE 18:48:40 54° E
Cosmos 1812 Rocket 4.0 18:43:01 10° SSW 18:47:22 60° W 18:51:43 10° N
Cosmos 2369 3.8 18:42:31 10° SSW 18:48:14 75° WNW 18:51:18 29° NNE
USA 308 3.4 18:44:31 10° WNW 18:48:20 56° WSW 18:48:20 56° WSW
DEBRIS 4.1 18:32:11 10° WSW 18:50:33 90° WSW 18:51:52 59° ENE
USA 215 3.5 18:54:35 47° NE 18:55:27 50° NNE 19:01:43 10° NW
NOSS 3-3 (A) 4.2 18:50:26 10° SW 18:56:17 68° NW 18:59:03 35° NNE
NOSS 3-3 (C) 4.1 18:50:33 10° SW 18:56:24 68° NW 18:59:06 36° NNE
Cosmos 2227 Rocket 4.2 18:53:15 10° NW 18:57:52 26° WSW 19:02:27 10° SSW
CSL-04 Rocket 4.3 18:52:30 10° S 18:57:56 55° W 19:03:22 10° NNW
MOS 1 Rocket 3.9 18:53:26 10° N 18:58:02 57° WNW 19:02:54 10° SSW
Cosmos 2263 Rocket 2.7 18:56:47 10° NNW 19:01:10 48° N 19:01:10 48° N
CZ-4 R/B 4.0 19:01:33 10° SW 19:04:22 19° W 19:07:09 10° NW
ATLAS 2AS CENTAUR R/B 2.7 19:01:48 10° NW 19:09:21 69° NE 19:09:28 68° NE
Cosmos 1825 4.2 19:06:18 10° NNW 19:09:13 27° W 19:09:13 27° W
BREEZE-M R/B 4.1 19:05:07 10° WNW 19:09:56 84° SSW 19:10:34 75° SE
Lacrosse 5 3.3 19:08:13 10° NW 19:11:26 30° NNW 19:11:26 30° NNW
Cosmos 1697 Rocket 3.7 19:08:10 10° SW 19:13:29 43° NW 19:16:32 24° N
Atlas Centaur 2 4.3 19:09:10 10° SW 19:15:43 25° S 19:16:23 25° S
Cosmos 44 Rocket 4.4 19:14:01 10° SW 19:17:10 39° WSW 19:17:10 39° WSW
SL-4 R/B 4.5 19:17:20 10° WNW 19:18:22 18° WNW 19:18:22 18° WNW
Cosmos 1980 Rocket 3.2 19:31:05 10° SW 19:35:17 43° W 19:35:17 43° W
CZ-4C R/B 3.6 19:57:23 10° NW 20:02:11 48° NNW 20:02:11 48° NNW
